This demonstration page uses our WeatherBlox Daily Observations layout. Learn more.

Left ArrowRight Arrow

Hourly Observations for July 11, 2021

Temp ( °F °C ) Dew Point ( °F °C ) Humidity (%) Winds ( mph kmh ) Pressure ( in mb ) Visibility ( mi km ) Precip ( " mm )
1:56 am 01:56 Clear 63 17.2 60 15.6 90 90 NNW 13 20 30.04 1017 10 16 0.00 0.00
2:56 am 02:56 Partly Cloudy 62 16.7 60 15.6 93 93 N 12 19 30.05 1018 10 16 0.00 0.00
3:03 am 03:03 Mostly Cloudy 63 17 61 16 94 94 N 14 22 30.04 1017 10 16 0.00 0.00
3:56 am 03:56 Cloudy 62 16.7 59 15 90 90 NNE 16 26 30.05 1018 10 16 0.00 0.00
4:04 am 04:04 Cloudy 63 17 59 15 88 88 NNE 13 20 30.04 1017 10 16 0.00 0.00
4:22 am 04:22 Partly Cloudy 61 16 57 14 88 88 N 13 20 30.05 1018 10 16 0.00 0.00
4:56 am 04:56 Mostly Cloudy 61 16.1 59 15 93 93 N 9 15 30.05 1018 10 16 0.00 0.00
5:23 am 05:23 Partly Cloudy 61 16 57 14 88 88 N 12 19 30.05 1018 10 16 0.00 0.00
5:56 am 05:56 Clear 60 15.6 58 14.4 93 93 NNW 10 17 30.06 1018 10 16 0.00 0.00
6:56 am 06:56 Sunny 59 15 58 14.4 96 96 NNW 9 15 30.09 1019 10 16 0.00 0.00
7:56 am 07:56 Sunny 62 16.7 59 15 90 90 N 12 19 30.11 1020 10 16 0.00 0.00
8:56 am 08:56 Sunny 65 18.3 59 15 81 81 N 13 20 30.12 1020 10 16 0.00 0.00
9:56 am 09:56 Mostly Sunny 68 20 59 15 73 73 N 13 20 30.11 1020 10 16 0.00 0.00
10:56 am 10:56 Mostly Sunny 71 21.7 58 14.4 63 63 NNE 9 15 30.12 1020 10 16 0.00 0.00
11:56 am 11:56 Partly Cloudy 73 22.8 56 13.3 55 55 NE 7 11 30.13 1020 10 16 0.00 0.00
12:56 pm 12:56 Partly Cloudy 75 23.9 56 13.3 52 52 NE 8 13 30.12 1020 10 16 0.00 0.00
1:56 pm 13:56 Mostly Cloudy 74 23.3 56 13.3 54 54 N 6 9 30.10 1019 10 16 0.00 0.00
2:56 pm 14:56 Partly Cloudy 76 24.4 57 13.9 52 52 NNE 7 11 30.09 1019 10 16 0.00 0.00
3:56 pm 15:56 Mostly Sunny 77 25 57 13.9 50 50 ENE 7 11 30.08 1019 10 16 0.00 0.00
4:56 pm 16:56 Sunny 78 25.6 57 13.9 48 48 NE 9 15 30.05 1018 10 16 0.00 0.00
5:56 pm 17:56 Cloudy 78 25.6 58 14.4 50 50 ENE 9 15 30.05 1018 10 16 0.00 0.00
6:56 pm 18:56 Sunny 77 25 57 13.9 50 50 NE 8 13 30.04 1017 10 16 0.00 0.00
7:56 pm 19:56 Sunny 75 23.9 59 15 58 58 ENE 3 6 30.04 1017 10 16 0.00 0.00
8:56 pm 20:56 Sunny 72 22.2 62 16.7 71 71 ESE 3 6 30.04 1017 10 16 0.00 0.00
9:56 pm 21:56 Clear 69 20.6 62 16.7 78 78 Calm 30.05 1018 10 16 0.00 0.00
10:56 pm 22:56 Clear 65 18.3 61 16.1 87 87 ENE 6 9 30.07 1018 10 16 0.00 0.00
11:56 pm 23:56 Clear 64 17.8 62 16.7 93 93 Calm 30.08 1019 10 16 0.00 0.00

Powered by AerisWeather